Weather Service Report


033 
ASUS46 KSEW 280510
RWRWA 

WASHINGTON REGIONAL WEATHER ROUNDUP
NATIONAL WEATHER SERVICE SEATTLE WA
1000 PM PDT SAT AUG 27 2016

NOTE:"FAIR" INDICATES FEW OR NO CLOUDS BELOW 12,000 FEET WITH NO 
SIGNIFICANT WEATHER AND/OR OBSTRUCTIONS TO VISIBILITY.

WAZ505-507>509-280600-
SEATTLE, TACOMA, EVERETT, AND VICINITY
  
CITY           SKY/WX    TMP DP  RH WIND       PRES   REMARKS
EVERETT        CLOUDY    58  52  80 N6        29.98R                  
BOEING FIELD   PTCLDY    63  52  67 S7        29.97R                  
RENTON         CLEAR     64  53  67 S8        29.97R                  
SEATAC AIRPORT PTCLDY    60  52  74 S10       29.99R                  
JBLM-MCCHORD   PTCLDY    60  53  78 SW10      29.99R                  
PUYALLUP       MOCLDY    59  54  82 CALM      30.00R                  
BREMERTON      PTCLDY    57  52  82 S7        30.01R                  
JBLM-FT LEWIS  PTCLDY    59  53  78 S12       29.99R                  
TACOMA NARROWS PTCLDY    58  51  78 SW9       29.99R                  
$$
 
WAZ001-503-506-510-514-515-280600-
NORTH INTERIOR
  
CITY           SKY/WX    TMP DP  RH WIND       PRES   REMARKS
BELLINGHAM     PTCLDY    61  51  70 S12G21    29.93R                  
FRIDAY HARBOR  CLEAR     59  50  72 W7        29.94R                  
EASTSOUND      PTCLDY    59  50  72 S13       29.90R                  
PORT ANGELES   PTCLDY    55  50  83 SW3       29.97R                  
EDIZ HOOK      FAIR      56  51  82 W7        29.97S                  
PORT TOWNSEND  MOCLDY    59  52  77 VRB6G12   29.97S                  
NAS WHIDBEY    PTCLDY    58  50  75 SW10      30.00R                  
ARLINGTON      MOCLDY    57  45  62 N5        29.99R                  
BURLINGTON     PTCLDY    57  52  82 S5        29.97R                  
$$
 
WAZ020-022-039-040-504-511-512-280600-
SOUTHWEST INTERIOR
  
CITY           SKY/WX    TMP DP  RH WIND       PRES   REMARKS
SHELTON        MOCLDY    58  51  78 SW15      29.96R                  
OLYMPIA        PTCLDY    58  51  78 SW9       29.99S                  
CHEHALIS       FAIR      59  54  82 VRB5      30.02R                  
KELSO          PTCLDY    62  54  74 CALM      30.02R                  
VANCOUVER      PTCLDY    63  54  72 VRB7      30.00R                  
SCAPPOOSE, OR  CLEAR     61  54  77 N5        29.99R                  
PORTLAND, OR   PTCLDY    65  54  67 N7        30.00R                  
$$
 
WAZ021-516-517-280600-
WASHINGTON COAST
  
CITY           SKY/WX    TMP DP  RH WIND       PRES   REMARKS
FORKS          CLOUDY    58  55  90 VRB3      30.01R                  
HOQUIAM        CLOUDY    59  56  89 SW8       30.02R                  
ASTORIA, OR    CLOUDY    60  57  89 CALM      30.03R                  
$$
 
WAZ019-023-024-040-518-519-280600-
CASCADE MOUNTAINS AND COLUMBIA GORGE
  
CITY           SKY/WX    TMP DP  RH WIND       PRES   REMARKS
STAMPEDE PASS  PTCLDY    49  44  83 W8        30.01S                  
TROUTDALE, OR  PTCLDY    66  54  65 VRB5      29.99R                  
THE DALLES, OR MOCLDY    75  55  49 W20G31    29.86R                  
$$

WAZ026-027-041>044-520-521-280600-
EAST SLOPES
  
CITY           SKY/WX    TMP DP  RH WIND       PRES   REMARKS
OMAK           PTCLDY    71  36  27 NW9       29.77R                  
WENATCHEE      MOCLDY    68  47  46 NW13      29.84R                  
ELLENSBURG     MOCLDY    65  46  50 NW22      29.90R                  
YAKIMA         PTCLDY    72  43  35 N8        29.87R                  
$$

WAZ028-034-035-280600-
COLUMBIA BASIN
  
CITY           SKY/WX    TMP DP  RH WIND       PRES   REMARKS
EPHRATA        CLOUDY    72  43  35 W22G38    29.78R                  
MOSES LAKE     CLOUDY    72  43  35 NW15      29.80R                  
PASCO          CLOUDY    75  45  34 NW10      29.82R                  
HERMISTON, OR  CLOUDY    77  50  38 W16       29.84R                  
$$

WAZ036>038-280600-
NORTHEAST WASHINGTON
  
CITY           SKY/WX    TMP DP  RH WIND       PRES   REMARKS
SPOKANE GEIGER PTCLDY    70  40  33 SW15      29.80R                  
SPOKANE FELTS  PTCLDY    72  42  34 SW7       29.79R                  
FAIRCHILD AFB  PTCLDY    66  40  39 SW12      29.80R                  
COEURDALENE,ID PTCLDY    68  45  42 NE8       29.78R                  
DEER PARK      PTCLDY    68  37  32 S6        29.78R                  
$$

WAZ029>033-280600-
SOUTHEAST WASHINGTON
  
CITY           SKY/WX    TMP DP  RH WIND       PRES   REMARKS
PULLMAN        CLOUDY    72  48  42 W17G23    29.87R                  
LEWISTON, ID   CLOUDY    82  47  29 W14G23    29.79R                  
WALLA WALLA    MOCLDY    76  51  41 SW20      29.85R                  
PENDLETON, OR  MOCLDY    73  51  46 W15G24    29.88R                  
$$
  

Return to Home page


Western Regional Climate Center, wrcc@dri.edu